Погода в Борогонцах

Россия / Республика Саха (Якутия)     62°40′16″N   131°10′08″E
темп.,
°C
ветер,
м/с
пор.,
м/с
влажн.,
%
обл.,
%
осадки,
мм/ч
давл.,
гПа
погр.,
м
6 августа, пт
пт600:00+14всв311400 0.0 1005206
03:00+12св310460 0.0 1005179
06:00+14св310470 0.0 1005245
09:00+20всв46310 0.0 1006658
12:00+24в45303 0.0 10061249
15:00+28юв57215 0.0 10052663
18:00+25юв492997 0.0 10072124
21:00+17юв225273 0.0 100915
7 августа, сб
сб700:00+15вюв3116113 0.0 1011209
03:00+17вюв41450100 0.0 1013643
06:00+17вюв5145044 0.0 1016930
09:00+21юв7143916 0.0 10171338
12:00+24юв712245 0.0 10171887
15:00+24юв711220 0.0 10171975
18:00+23юв511290 0.0 10181814
21:00+18вюв412400 0.0 1020471
8 августа, вс
вс800:00+15вюв412500 0.0 1021467
03:00+13вюв413563 0.0 1022515
06:00+13вюв513555 0.0 1023615
09:00+19юв610325 0.0 10221075
12:00+23юв69205 0.0 10201584
15:00+25юв58175 0.0 10181854
18:00+24юв47236 0.0 10181644
21:00+15вюв374344 0.0 101994
9 августа, пн
пн900:00+13вюв35485 0.0 101983
03:00+11вюв25555 0.0 101978
06:00+13вюв28545 0.0 1020179
09:00+21юв46335 0.0 1018768
12:00+26юв47215 0.0 10171568
15:00+28юв46195 0.0 10151849
18:00+26юв36265 0.0 1015842
21:00+18юв224720 0.0 101612
10 августа, вт
вт1000:00+15юв22515 0.0 101718
03:00+13юв22585 0.0 101727
06:00+15юв27595 0.0 1018150
09:00+23ююв37335 0.0 1017758
12:00+28ююв46215 0.0 10161818
15:00+29ююв46185 0.0 10152104
18:00+27ю36255 0.0 1014496
21:00+19ююв22425 0.0 101513